Theta_e
299 296 295 297 300 299 298 295 294 290 292 290 290 291 295 293 298 303 305 308 309 311 316 316 318 321 323 325 325 326 326 326 325 325 324 325 325 327 328 329 329 328 328 327
294 292 298 301 301 296 298 295 292 293 291 290 289 290 294 291 291 295 303 305 308 309 309 314 315 316 319 323 325 325 326 326 326 327 326 329 328 328 329 329 330 330 329 328
292 294 298 299 297 297 293 295 294 294 289 290 288 288 290 291 290 291 293 301 304 309 310 308 309 313 317 318 322 325 326 327 327 328 326 326 327 327 327 327 328 325 328 328
296 298 295 294 294 297 291 295 291 289 288 287 287 281 288 289 290 289 291 291 296 301 302 307 307 305 310 316 319 323 326 327 327 328 327 327 326 324 325 325 319 316 318 319
292 292 293 291 293 295 292 295 292 289 286 282 282 282 286 286 286 289 290 291 292 294 297 301 304 305 304 306 313 318 322 326 327 327 328 327 326 327 321 316 312 309 309 310
292 294 295 293 293 297 293 292 290 289 286 281 283 284 282 290 288 290 291 293 294 294 292 293 296 299 301 302 303 306 316 322 325 326 327 326 325 320 315 312 309 306 304 303
291 291 293 291 288 293 293 289 281 280 278 278 280 281 288 288 289 292 294 294 295 294 292 292 295 297 300 302 302 300 302 316 322 324 326 326 325 321 317 313 308 302 300 298
286 284 290 292 289 287 290 289 282 276 276 277 278 279 284 289 293 290 290 291 291 292 291 292 295 297 300 301 302 301 300 303 319 322 324 325 323 322 317 311 306 302 299 296
287 287 291 291 293 292 287 285 287 281 271 274 278 281 287 287 288 288 290 290 291 292 292 294 294 297 299 300 301 301 300 302 308 320 322 323 321 317 311 306 303 298 295 293
287 281 288 291 293 292 288 292 284 284 275 271 276 277 282 284 288 290 289 291 293 292 291 293 295 296 298 299 299 299 300 302 304 313 314 314 313 310 304 300 296 294 292 291
287 284 281 286 287 286 287 286 287 286 281 275 272 278 283 287 289 289 290 291 292 293 292 293 295 295 297 297 296 296 297 299 301 304 303 301 299 300 299 297 293 291 290 289
287 283 279 283 285 291 289 287 288 284 279 279 278 279 286 286 287 288 289 289 292 293 293 294 294 295 294 295 294 294 295 296 299 298 299 298 296 295 293 292 290 289 288 287
287 282 275 281 284 284 286 286 289 287 285 282 280 284 286 285 286 289 290 291 292 293 293 293 293 293 293 293 293 293 293 293 295 295 295 294 292 292 291 289 288 287 286 286
293 284 281 279 281 284 283 286 288 288 283 282 283 287 286 288 289 288 290 292 293 293 293 293 292 293 292 292 291 291 290 291 292 293 292 291 290 290 289 287 286 286 285 284
289 280 281 282 283 284 285 285 285 285 287 283 287 286 290 292 293 294 290 292 292 292 292 292 292 291 291 291 291 291 290 289 290 291 290 289 287 287 286 285 285 284 284 283
286 278 281 278 282 283 282 286 287 287 287 287 287 285 289 289 289 288 291 290 292 292 293 293 293 292 291 291 291 290 288 287 289 288 288 286 285 285 285 284 284 283 282 282
285 281 277 271 279 280 275 283 285 287 289 288 283 289 290 288 289 292 293 290 292 293 293 293 294 293 293 293 292 289 288 287 286 286 285 285 284 284 284 283 282 281 281 281
286 280 276 271 274 272 283 284 287 287 288 291 291 291 289 292 291 290 291 291 292 293 293 294 295 295 295 294 291 291 288 286 285 285 284 284 284 283 282 281 281 280 280 280
286 283 275 274 268 279 283 283 283 282 284 288 287 290 290 288 286 289 290 292 294 293 295 296 296 296 294 293 292 289 287 286 285 284 284 283 283 282 281 280 279 279 279 279
285 287 281 267 271 272 280 286 287 287 282 289 288 288 287 286 284 290 290 291 292 293 294 295 295 294 293 292 291 288 286 285 284 284 284 283 283 282 281 280 279 279 279 279
274 276 281 270 275 276 284 285 287 279 282 283 287 288 286 286 289 288 290 290 289 290 291 292 293 294 294 291 289 288 287 285 287 285 283 282 281 281 281 279 278 277 277 277
279 277 273 270 269 276 285 284 285 287 285 286 287 287 286 286 286 286 287 287 288 287 288 290 291 291 291 289 288 287 286 287 284 283 282 281 281 280 279 278 276 277 277 276
279 282 280 283 281 286 284 284 284 285 285 284 285 285 286 287 286 286 286 286 286 285 285 284 285 287 287 286 288 287 286 284 282 282 282 281 279 279 278 277 276 275 276 275
279 283 282 283 282 283 283 283 283 283 284 285 285 285 285 285 285 284 285 284 284 282 281 280 281 281 280 280 282 283 283 283 283 283 281 279 278 277 277 277 276 276 275 276
282 283 278 278 281 282 282 283 284 285 284 284 285 284 284 284 284 284 283 281 281 279 279 279 279 279 279 278 278 279 281 282 283 282 279 278 278 277 276 276 276 276 277 278
283 281 281 279 284 284 284 284 285 284 283 283 284 283 282 283 283 282 279 278 278 278 277 278 277 277 276 276 276 277 280 282 281 278 277 277 276 276 276 275 275 279 278 280
Wind_Speed
4 4 12 11 13 1 11 6 10 2 1 2 6 8 12 5 5 7 8 9 9 10 8 6 10 10 9 8 10 12 11 11 8 5 5 4 5 4 4 4 7 7 6 6
4 6 5 10 7 6 10 11 7 3 0 3 4 9 12 6 7 9 11 8 12 7 7 9 11 11 12 13 13 11 12 11 10 7 5 3 5 4 5 5 6 7 6 5
6 3 12 10 10 10 3 15 7 4 0 0 5 13 10 6 5 5 7 7 8 15 14 10 10 13 13 13 14 13 14 13 12 12 5 3 3 2 3 3 3 2 3 4
2 5 12 12 7 11 8 4 4 5 1 4 6 7 9 6 12 9 10 10 13 14 9 12 13 11 14 16 12 13 13 14 13 13 11 12 10 8 5 4 4 4 4 4
4 8 14 11 7 9 2 10 5 2 4 3 4 4 8 6 10 11 12 14 14 16 15 17 16 15 12 9 11 11 11 13 13 14 14 11 10 6 3 6 8 6 5 5
2 2 7 9 7 15 11 9 11 6 5 7 7 7 7 12 8 6 9 14 16 15 13 10 7 8 8 7 8 8 11 13 12 13 15 14 13 10 8 7 7 5 5 4
4 1 2 2 9 4 13 11 3 3 3 10 5 8 15 6 8 10 12 16 16 12 10 12 13 13 13 13 10 8 9 13 13 13 13 14 13 14 15 13 9 9 6 3
9 7 8 6 7 9 12 5 6 6 5 5 4 12 8 11 10 6 6 7 4 8 9 13 15 13 13 12 11 11 11 10 11 13 14 12 12 9 9 11 10 7 6 7
8 6 2 2 4 8 7 8 7 5 1 1 6 9 9 8 7 6 9 6 10 9 9 14 9 9 9 10 9 8 7 6 7 10 9 10 11 11 10 12 10 7 7 8
7 6 5 4 3 5 5 8 5 2 4 5 5 6 8 3 12 10 9 12 14 6 6 6 5 7 6 5 6 7 7 8 6 9 6 8 10 10 11 10 11 11 9 10
6 5 2 8 10 13 4 6 3 2 4 4 2 8 9 13 10 8 9 3 4 5 7 6 6 6 6 4 5 6 6 8 8 7 7 8 6 8 10 11 11 12 12 12
6 6 5 10 3 11 4 7 10 6 5 2 2 11 6 8 7 4 7 7 5 3 6 6 7 10 9 7 6 6 5 5 5 5 6 8 9 9 11 10 11 11 12 10
9 3 5 3 2 3 13 7 14 3 4 7 5 15 2 3 4 6 7 7 6 4 5 5 5 7 8 9 7 6 6 5 6 7 8 8 9 10 10 12 12 11 12 10
8 6 8 11 7 9 9 16 14 15 5 8 16 31 6 8 9 3 6 6 5 6 5 5 5 4 2 4 6 6 5 7 6 7 9 9 10 9 9 11 11 12 10 11
5 6 4 2 4 6 9 17 17 23 29 14 32 24 22 18 19 19 8 5 4 7 8 9 9 8 8 7 7 6 6 7 8 8 8 9 8 9 10 10 10 11 10 9
2 2 4 2 1 7 7 17 25 27 21 22 17 23 6 6 8 8 14 4 8 12 13 10 8 9 10 11 9 8 8 8 7 9 8 9 10 10 10 10 10 11 9 8
10 8 5 6 1 5 5 20 18 19 21 25 18 33 6 8 13 16 17 8 11 11 8 8 12 14 13 14 12 12 11 10 10 10 10 12 12 12 11 11 10 10 10 8
14 7 4 4 3 6 8 4 16 22 18 26 24 18 7 14 12 8 9 10 11 11 10 11 12 14 14 12 13 11 12 12 11 10 11 12 13 12 11 11 10 9 8 8
2 7 3 7 5 7 12 7 8 11 18 18 19 19 15 7 2 14 10 12 16 9 10 10 8 6 8 11 12 12 11 11 11 13 13 12 12 13 12 11 10 8 8 6
4 7 6 4 9 13 2 9 7 7 20 12 16 16 16 8 7 14 3 4 7 4 3 6 7 7 9 11 13 13 14 14 16 16 15 14 13 13 13 12 11 6 6 8
4 1 15 4 7 8 6 5 4 9 6 2 1 6 6 7 5 2 7 5 5 6 8 3 6 9 11 11 13 14 14 18 15 12 11 11 11 12 11 10 5 7 7 7
9 8 5 3 1 15 7 3 17 6 2 2 1 2 3 4 3 4 5 7 9 9 8 8 3 5 6 8 11 11 13 8 7 10 11 12 12 9 9 11 8 8 9 9
3 8 8 12 8 2 4 3 1 2 3 3 1 2 2 2 4 5 5 6 6 7 7 6 4 2 3 6 9 9 6 9 10 11 11 11 10 9 10 12 11 9 8 8
3 4 4 5 3 2 4 3 2 2 5 3 3 3 4 4 4 4 5 6 6 5 6 6 5 1 1 1 3 3 7 10 12 12 11 11 12 11 10 8 8 9 9 8
4 7 7 1 2 3 3 3 6 5 5 6 6 4 4 5 5 6 5 5 5 5 5 4 4 4 3 2 2 2 6 9 9 9 9 9 8 10 9 7 8 8 8 10
5 7 6 6 6 5 3 4 4 6 5 5 5 4 6 6 6 4 5 5 4 5 4 6 6 4 3 2 1 1 4 8 9 8 8 9 9 9 9 9 6 10 8 14
Wind_Direction
144 175 198 180 189 292 149 171 228 170 356 151 230 253 258 194 220 220 204 199 211 212 226 200 200 190 185 189 190 192 188 187 171 177 181 193 200 194 192 176 186 188 189 197
117 228 158 140 167 124 190 183 205 262 60 175 307 266 257 204 227 209 203 204 214 198 210 206 202 196 193 199 197 197 200 188 186 189 192 179 173 186 196 185 200 186 192 192
165 163 147 152 171 192 151 203 184 192 190 184 27 276 262 250 252 218 218 197 202 212 215 220 216 202 204 204 195 200 202 192 192 192 163 131 102 99 166 178 179 107 157 175
247 130 152 150 185 189 198 191 131 114 305 229 169 277 249 228 238 221 216 196 212 215 215 214 213 213 204 207 202 199 198 200 195 185 189 197 196 188 186 155 126 127 105 104
173 165 162 172 164 159 244 160 152 68 179 313 215 226 267 162 239 240 226 214 217 217 211 215 211 210 214 191 194 201 202 199 194 190 194 196 201 197 107 121 122 112 98 92
99 333 175 171 160 165 131 70 38 356 58 268 181 210 219 226 215 218 238 230 218 215 212 226 208 189 205 189 188 191 197 203 193 191 196 196 191 154 144 146 143 146 123 104
111 143 325 164 98 160 126 136 123 145 198 236 272 183 239 239 225 214 214 221 227 213 196 205 201 205 199 190 187 181 189 205 194 195 197 198 187 172 168 164 155 154 144 134
163 182 188 170 158 165 164 152 143 174 207 264 351 230 260 211 228 225 249 265 261 221 213 210 216 206 200 182 183 182 185 198 200 199 199 195 184 180 170 160 154 156 152 133
153 198 15 148 119 147 163 212 148 124 77 19 215 292 297 255 264 237 238 245 246 233 220 223 211 206 193 180 186 186 179 196 201 205 198 191 175 165 163 152 146 140 144 132
189 115 184 205 130 20 146 141 190 79 198 251 280 275 246 337 243 224 225 223 246 246 235 242 221 184 168 172 174 185 189 195 186 194 179 175 170 157 146 144 142 142 140 136
146 100 20 128 211 166 134 155 92 44 204 184 281 258 221 224 219 235 252 272 281 279 238 211 198 190 174 160 175 191 186 174 178 175 160 141 139 144 144 147 142 146 140 140
195 117 141 196 300 176 194 181 171 182 197 251 134 260 246 229 236 250 263 307 294 261 266 213 199 172 170 182 171 186 194 188 176 151 152 148 141 143 139 145 141 150 140 130
177 143 96 84 349 3 202 188 203 151 73 214 185 262 236 255 297 293 286 311 304 271 237 214 183 200 192 178 178 173 180 178 156 150 145 146 145 148 152 145 139 145 134 131
142 171 165 181 183 140 189 185 190 199 202 205 222 243 249 294 305 263 245 255 275 259 246 224 202 201 206 162 158 168 177 165 161 152 151 152 151 147 154 135 145 136 136 138
188 177 132 89 138 142 170 178 177 199 220 199 241 248 239 260 288 292 197 201 227 252 235 210 203 184 180 189 189 177 173 168 158 154 155 150 130 133 136 135 150 130 135 144
210 201 110 163 302 187 179 193 192 207 215 236 255 271 170 220 248 278 290 254 235 213 219 210 198 185 191 194 190 176 168 162 165 157 155 142 141 144 144 142 150 137 138 141
173 139 113 233 171 114 309 209 197 208 206 219 227 242 136 219 226 244 255 238 247 250 255 206 206 203 203 194 179 183 176 162 173 162 157 157 156 154 154 148 144 148 152 148
185 127 101 162 55 204 249 176 197 204 211 224 244 255 200 240 245 246 223 228 239 230 217 220 209 208 202 184 178 169 164 171 165 164 166 167 163 158 151 152 155 152 154 156
70 138 116 145 191 288 262 177 146 163 245 227 238 248 248 232 198 268 219 230 241 220 220 233 230 208 173 179 173 165 166 169 171 178 175 172 167 159 157 161 161 157 152 155
75 181 144 123 172 222 139 174 148 108 273 189 210 222 225 147 220 253 29 251 280 250 200 221 196 174 175 177 165 167 178 176 189 186 181 174 168 163 166 164 161 155 160 152
91 78 210 188 226 284 247 95 119 156 251 292 312 255 148 190 236 326 341 13 14 11 355 273 191 191 193 168 166 185 183 196 190 172 167 167 167 165 165 152 150 146 141 136
145 152 190 66 132 256 163 56 181 195 120 67 354 52 195 229 280 334 26 6 3 7 358 347 257 213 172 163 173 190 201 177 152 156 161 165 164 161 156 154 143 148 148 150
161 178 175 183 202 227 192 99 96 44 67 43 37 7 13 45 37 20 7 12 0 9 347 346 319 189 160 170 183 191 182 146 147 156 169 168 160 160 160 158 156 153 158 162
289 185 154 93 257 113 134 76 83 81 122 127 72 40 51 78 50 47 16 4 13 13 3 339 358 32 246 43 82 125 143 148 160 171 168 163 167 163 165 164 164 162 170 171
201 126 147 20 302 98 157 166 161 123 99 94 75 82 54 67 37 38 16 359 2 3 6 7 9 6 333 22 86 141 151 154 165 165 161 166 171 174 165 171 173 179 190 186
200 168 164 198 167 137 129 153 165 123 118 103 123 77 56 59 64 51 27 356 353 11 2 9 2 17 355 2 194 204 160 165 158 157 167 176 169 171 172 168 159 197 192 200